Galesburg, IL

7:04 AM CDT on May 20, 2018 (GMT -0500)
Galesburg Municipal

Weather History for KGBG - December, 2012

Change the Weather History Date:

Saturday, December 15, 2012

  Actual Average Record
Temperature  
Mean Temperature 44 °F -  
Max Temperature 49 °F 35 °F 62 °F (1971)
Min Temperature 40 °F 20 °F -17 °F (1989)
Degree Days  
Heating Degree Days 20    
Moisture  
Dew Point 43 °F    
Average Humidity 91    
Maximum Humidity 97    
Minimum Humidity 78    
Precipitation  
Precipitation 0.38 in - - ()
Sea Level Pressure  
Sea Level Pressure 29.66 in    
Wind  
Wind Speed 10 mph (South)    
Max Wind Speed 17 mph    
Max Gust Speed 24 mph    
Visibility 8 miles    
Events Rain    
Averages and records for this station are not official NWS values.
T = Trace of Precipitation, MM = Missing Value Source: NWS Daily Summary

Daily Weather History Graph

Daily Weather History Graph

Search for Another Location

Airport or City:

Astronomy

Dec. 15, 2012 Rise Set
Actual Time 7:19 AM CST 4:34 PM CST
Civil Twilight 6:48 AM CST 5:05 PM CST
Nautical Twilight 6:14 AM CST 5:40 PM CST
Astronomical Twilight 5:40 AM CST 6:13 PM CST
Moon 9:11 AM CST (12/15) 7:39 PM CST (12/15)
Length of Visible Light 10h 17m
Length of Day
9h 14m
Waxing Crescent, 8% of the Moon is Illuminated
Dec 15
Waxing Crescent
Dec 19
First Quarter
Dec 28
Full
Jan 4
Last Quarter
Jan 11
New

Hourly Weather History & Observations

Time (CST) Temp. Windchill Dew Point Humidity Pressure Visibility Wind Dir Wind Speed Gust Speed Precip Events Conditions
12:15 AM 42.3 °F 39.4 °F 36.1 °F 79% 29.92 in 10.0 mi ESE 4.6 mph - N/A   Overcast
12:35 AM 41.9 °F 37.5 °F 36.0 °F 79% 29.91 in 10.0 mi SE 6.9 mph - N/A   Light Drizzle
12:55 AM 41.9 °F 39.0 °F 35.6 °F 78% 29.90 in 10.0 mi SE 4.6 mph - N/A   Overcast
1:15 AM 41.9 °F 38.2 °F 35.4 °F 78% 29.89 in 10.0 mi SE 5.8 mph - N/A   Overcast
1:35 AM 41.9 °F 38.2 °F 35.6 °F 78% 29.88 in 10.0 mi SE 5.8 mph - N/A Rain Light Rain
1:55 AM 41.2 °F 36.6 °F 36.1 °F 82% 29.88 in 10.0 mi ESE 6.9 mph - N/A   Light Drizzle
2:15 AM 41.0 °F 35.8 °F 36.7 °F 85% 29.89 in 10.0 mi SE 8.1 mph - 0.01 in Rain Light Rain
2:35 AM 40.3 °F 34.4 °F 37.4 °F 89% 29.88 in 10.0 mi SE 9.2 mph 16.1 mph 0.03 in Rain Light Rain
2:55 AM 40.5 °F 35.1 °F 37.6 °F 89% 29.87 in 10.0 mi SSE 8.1 mph - 0.03 in Rain Rain
3:15 AM 40.6 °F 35.4 °F 37.8 °F 89% 29.87 in 10.0 mi SE 8.1 mph - 0.01 in Rain Rain
3:35 AM 40.6 °F 34.8 °F 38.1 °F 91% 29.85 in 7.0 mi SE 9.2 mph - 0.04 in Rain Rain
3:55 AM 40.6 °F 33.4 °F 38.3 °F 91% 29.80 in 4.0 mi ESE 12.7 mph - 0.11 in Rain Heavy Rain
4:15 AM 40.3 °F 33.0 °F 38.3 °F 93% 29.77 in 7.0 mi SE 12.7 mph 18.4 mph 0.02 in Rain Light Rain
4:35 AM 40.6 °F 33.0 °F 38.7 °F 93% 29.76 in 10.0 mi SE 13.8 mph 19.6 mph 0.03 in   Overcast
4:55 AM 41.2 °F 34.5 °F 39.2 °F 93% 29.77 in 10.0 mi SE 11.5 mph 23.0 mph 0.03 in   Drizzle
5:15 AM 41.2 °F 33.7 °F 39.7 °F 95% 29.75 in 3.0 mi SE 13.8 mph 17.3 mph 0.05 in Rain Heavy Rain
5:35 AM 41.4 °F 33.6 °F 40.5 °F 97% 29.71 in 4.0 mi ESE 15.0 mph 20.7 mph 0.11 in Rain Rain
5:55 AM 42.8 °F 36.6 °F 41.0 °F 93% 29.71 in 10.0 mi SE 11.5 mph 17.3 mph N/A Rain Light Rain
6:15 AM 42.3 °F 35.1 °F 40.6 °F 94% 29.71 in 10.0 mi SE 13.8 mph 21.9 mph N/A   Overcast
6:35 AM 42.4 °F 35.3 °F 41.0 °F 95% 29.70 in 10.0 mi SE 13.8 mph 21.9 mph N/A Rain Light Rain
6:55 AM 42.8 °F 35.8 °F 41.9 °F 97% 29.70 in 4.0 mi SE 13.8 mph 24.2 mph 0.02 in Rain Rain
7:15 AM 43.2 °F 37.0 °F 42.4 °F 97% 29.69 in 4.0 mi SE 11.5 mph 19.6 mph 0.01 in Rain Light Rain
7:35 AM 43.7 °F 36.9 °F 42.8 °F 97% 29.68 in 3.0 mi SSE 13.8 mph 20.7 mph 0.03 in Rain Light Rain
7:55 AM 43.9 °F 36.5 °F 43.2 °F 97% 29.67 in 2.0 mi SSE 16.1 mph 20.7 mph 0.03 in Rain Light Rain
8:15 AM 44.1 °F 36.5 °F 43.3 °F 97% 29.67 in 1.8 mi SSE 17.3 mph 23.0 mph 0.01 in Rain Light Rain
8:35 AM 44.6 °F 37.4 °F 43.7 °F 97% 29.66 in 3.0 mi SSE 16.1 mph 20.7 mph 0.01 in Rain Light Rain
8:55 AM 44.6 °F 38.1 °F 43.7 °F 97% 29.67 in 4.0 mi SSE 13.8 mph 23.0 mph 0.01 in   Light Drizzle
9:15 AM 44.8 °F 38.0 °F 43.9 °F 97% 29.66 in 5.0 mi SSE 15.0 mph 20.7 mph N/A   Overcast
9:35 AM 45.1 °F 39.5 °F 44.2 °F 97% 29.64 in 5.0 mi SSE 11.5 mph 18.4 mph N/A   Light Drizzle
9:55 AM 45.3 °F 39.7 °F 44.4 °F 97% 29.64 in 5.0 mi SSE 11.5 mph 19.6 mph N/A   Overcast
10:15 AM 45.7 °F 39.8 °F 44.6 °F 96% 29.62 in 5.0 mi SSE 12.7 mph 19.6 mph N/A   Light Drizzle
10:35 AM 46.0 °F 40.6 °F 45.0 °F 96% 29.61 in 5.0 mi SSE 11.5 mph 17.3 mph N/A   Light Drizzle
10:55 AM 46.4 °F 41.5 °F 45.5 °F 97% 29.59 in 4.0 mi SSE 10.4 mph 18.4 mph N/A Rain Rain
11:15 AM 46.6 °F - 45.5 °F 96% 29.58 in 5.0 mi SE 11.5 mph 18.4 mph N/A Rain Rain
11:35 AM 47.7 °F - 45.7 °F 93% 29.57 in 7.0 mi SSE 13.8 mph 20.7 mph N/A   Light Drizzle
11:55 AM 47.7 °F - 46.4 °F 95% 29.56 in 5.0 mi SSE 12.7 mph 19.6 mph 0.01 in Rain Rain
12:15 PM 47.7 °F - 46.6 °F 96% 29.55 in 4.0 mi SSE 12.7 mph 18.4 mph N/A   Drizzle
12:35 PM 48.2 °F - 46.8 °F 95% 29.54 in 5.0 mi South 12.7 mph 18.4 mph 0.01 in Rain Light Rain
12:55 PM 48.4 °F - 46.9 °F 95% 29.54 in 4.0 mi South 17.3 mph 23.0 mph 0.03 in Rain Heavy Rain
1:15 PM 48.6 °F - 47.3 °F 95% 29.54 in 4.0 mi South 15.0 mph - N/A   Drizzle
1:35 PM 48.6 °F - 47.5 °F 96% 29.53 in 5.0 mi South 15.0 mph - N/A   Drizzle
1:55 PM 48.7 °F - 47.5 °F 95% 29.53 in 10.0 mi South 12.7 mph - N/A   Overcast
2:15 PM 49.1 °F - 47.3 °F 93% 29.53 in 10.0 mi South 11.5 mph - N/A   Overcast
2:35 PM 49.1 °F - 47.3 °F 93% 29.53 in 10.0 mi South 10.4 mph - N/A   Overcast
2:55 PM 49.3 °F - 47.5 °F 94% 29.54 in 10.0 mi SSW 9.2 mph - N/A   Overcast
3:15 PM 49.5 °F - 47.7 °F 94% 29.54 in 10.0 mi South 9.2 mph - N/A   Overcast
3:35 PM 49.3 °F - 47.3 °F 93% 29.54 in 10.0 mi South 9.2 mph - N/A   Overcast
3:55 PM 49.3 °F - 47.3 °F 93% 29.55 in 10.0 mi South 9.2 mph - N/A   Overcast
4:15 PM 49.1 °F - 47.8 °F 95% 29.56 in 10.0 mi South 9.2 mph - N/A   Overcast
4:35 PM 48.6 °F - 47.5 °F 96% 29.57 in 10.0 mi South 8.1 mph - N/A   Overcast
4:55 PM 48.7 °F - 47.5 °F 95% 29.57 in 10.0 mi South 8.1 mph - N/A   Overcast
5:15 PM 48.6 °F - 47.3 °F 95% 29.57 in 10.0 mi SSW 6.9 mph - N/A   Overcast
5:35 PM 48.4 °F - 46.6 °F 93% 29.57 in 10.0 mi SSW 8.1 mph - N/A   Overcast
5:55 PM 48.7 °F - 45.9 °F 90% 29.58 in 10.0 mi SSW 8.1 mph - N/A   Overcast
6:15 PM 48.7 °F - 45.5 °F 89% 29.59 in 10.0 mi SSW 10.4 mph - N/A   Overcast
6:35 PM 48.7 °F - 45.1 °F 87% 29.59 in 10.0 mi SW 10.4 mph - N/A   Overcast
6:55 PM 49.1 °F - 45.1 °F 86% 29.60 in 10.0 mi SW 11.5 mph - N/A   Overcast
7:15 PM 48.9 °F - 45.3 °F 87% 29.60 in 10.0 mi SSW 10.4 mph - N/A   Overcast
7:35 PM 48.6 °F - 45.1 °F 88% 29.60 in 10.0 mi SSW 11.5 mph - N/A   Overcast
7:55 PM 48.6 °F - 45.1 °F 88% 29.60 in 10.0 mi SW 11.5 mph - N/A   Overcast
8:15 PM 48.4 °F - 45.1 °F 89% 29.60 in 10.0 mi SW 11.5 mph - N/A   Overcast
8:35 PM 48.4 °F - 45.3 °F 89% 29.60 in 10.0 mi SW 11.5 mph - N/A   Overcast
8:55 PM 48.2 °F - 45.3 °F 90% 29.60 in 10.0 mi SSW 9.2 mph - N/A   Overcast
9:15 PM 48.2 °F - 45.5 °F 90% 29.60 in 10.0 mi SSW 10.4 mph - N/A   Overcast
9:35 PM 48.2 °F - 45.0 °F 89% 29.60 in 10.0 mi SW 10.4 mph - N/A   Overcast
9:55 PM 48.0 °F - 44.8 °F 89% 29.60 in 10.0 mi SW 12.7 mph - N/A   Overcast
10:15 PM 47.8 °F - 44.6 °F 89% 29.60 in 10.0 mi SSW 10.4 mph - N/A   Overcast
10:35 PM 48.0 °F - 44.4 °F 87% 29.61 in 10.0 mi SW 12.7 mph 18.4 mph N/A   Overcast
10:55 PM 47.7 °F - 44.2 °F 88% 29.61 in 10.0 mi SW 11.5 mph - N/A   Overcast
11:15 PM 47.7 °F - 44.2 °F 88% 29.62 in 10.0 mi SW 10.4 mph - N/A   Overcast
11:35 PM 47.7 °F - 43.9 °F 87% 29.62 in 10.0 mi SW 10.4 mph - N/A   Overcast
11:55 PM 47.7 °F - 43.7 °F 86% 29.61 in 10.0 mi SW 10.4 mph - N/A   Overcast